GFSSGP_250_rhum_231.txt.gz
RH
62 61 51 46 38 29 20 18 20 22 26 30 34 28 18 15 20 28 28 23 20 17 17 15 15 14 12 11 11 13 11 8 8 7 6 7 7 8 8 8 9 13 13 14 12 13 12 12 13
66 58 54 50 42 33 23 20 17 20 30 30 35 35 28 18 17 18 22 34 27 22 20 17 16 17 14 13 12 13 14 11 10 9 8 7 6 6 7 7 8 10 11 12 12 13 13 14 14
76 61 54 50 41 38 29 20 16 16 30 31 28 42 39 25 15 16 16 34 40 28 24 19 18 17 19 16 15 14 14 14 11 10 10 8 8 7 7 7 7 8 8 9 9 10 13 13 13
88 72 57 48 46 42 34 19 19 16 26 34 30 42 46 39 20 15 16 26 42 37 27 23 20 16 16 18 17 16 16 15 17 16 12 12 10 9 8 8 8 8 7 7 8 9 10 11 12
86 72 59 52 52 44 35 25 19 18 19 38 57 51 47 48 31 17 16 26 30 48 44 28 23 19 18 16 18 20 20 19 17 20 17 12 13 13 10 10 9 8 8 8 8 9 9 9 10
96 83 71 62 57 51 34 34 17 20 18 32 50 52 56 54 46 28 17 22 31 43 54 47 28 23 23 18 18 19 20 18 22 21 24 22 19 12 16 13 10 11 9 9 9 9 10 11 12
100 86 72 59 57 54 37 36 24 20 20 22 42 45 48 67 55 41 20 20 27 38 52 47 35 30 30 23 21 21 20 22 22 23 24 29 29 26 22 16 18 16 15 13 12 10 9 9 8
100 97 82 71 57 63 42 34 31 17 21 18 28 38 42 49 82 51 26 23 25 34 60 48 40 33 42 31 28 24 24 23 27 27 27 26 31 36 36 33 25 19 23 18 14 14 13 12 12
100 98 100 68 54 65 50 36 30 17 19 20 19 28 39 52 71 57 35 26 24 35 38 47 48 44 50 38 39 32 30 24 23 26 27 28 31 32 40 42 42 40 33 35 30 24 23 21 15
100 97 97 75 57 56 51 37 33 21 19 20 19 26 32 61 56 50 35 30 28 28 32 43 58 51 57 52 50 45 45 31 24 25 24 26 28 35 42 44 52 52 50 51 54 43 30 31 32
74 100 100 100 92 56 55 42 33 24 24 20 19 24 30 50 66 55 39 29 29 29 59 74 62 63 63 85 58 62 62 50 34 27 31 29 29 33 35 42 49 52 64 67 75 68 64 55 39
95 94 100 100 100 73 63 59 41 26 29 21 21 20 31 33 82 65 62 42 57 56 51 75 69 69 58 75 88 74 70 62 54 32 34 34 34 33 34 36 37 48 55 64 73 86 93 85 76
99 96 96 99 100 91 72 77 53 32 24 30 23 22 28 31 47 100 79 99 100 89 74 100 49 84 70 61 49 57 87 72 71 42 37 39 38 38 38 42 42 39 36 43 52 72 90 78 100
100 100 98 77 93 84 76 60 76 41 27 25 29 23 22 33 36 37 87 92 74 59 61 70 34 67 82 68 47 46 50 45 73 65 38 38 35 39 42 46 48 50 42 42 40 45 46 52 60
97 100 100 100 78 60 74 89 60 74 37 28 30 26 22 26 34 36 32 72 55 42 42 45 36 44 80 73 71 57 55 51 54 45 36 35 34 34 40 48 49 50 54 55 54 51 44 43 49
100 83 86 100 100 70 100 92 61 97 72 36 25 28 24 23 28 35 31 60 56 48 44 41 39 37 42 70 81 76 71 69 71 38 36 33 33 34 37 42 46 49 54 56 58 57 55 51 42
48 85 100 100 91 100 80 96 67 83 99 71 44 31 32 26 25 27 34 38 47 55 56 48 43 41 40 43 65 57 66 66 51 38 34 33 34 34 35 39 44 50 53 58 60 60 57 56 48
72 93 100 100 89 89 92 98 90 57 82 83 97 74 40 34 28 26 29 38 39 50 65 62 49 46 43 42 42 39 37 47 42 37 35 34 34 34 36 39 43 46 49 53 55 57 58 56 50
100 84 75 100 100 78 65 99 94 65 71 73 100 98 76 48 34 28 26 34 59 57 58 67 58 48 47 44 45 43 36 38 38 36 35 35 35 35 37 40 43 46 46 48 52 54 55 55 53
100 100 80 74 86 65 52 96 100 47 72 71 72 94 100 68 44 32 28 25 34 65 70 62 63 58 51 49 49 47 45 45 43 40 38 38 38 39 40 42 45 47 48 50 54 58 60 61 60
100 100 100 77 71 60 54 87 100 55 48 75 84 69 72 100 70 56 35 28 27 38 55 62 59 56 55 56 54 53 54 54 52 52 50 48 45 44 44 47 48 50 55 59 59 62 62 62 58
68 100 100 100 98 49 74 80 100 98 37 50 71 74 82 98 98 88 66 46 29 28 35 49 54 60 68 54 53 56 61 60 59 57 56 54 50 50 49 50 56 61 60 67 65 62 60 57 50
65 79 100 100 100 89 74 58 100 100 74 53 55 56 90 84 100 100 92 67 56 34 26 31 38 44 45 68 71 60 55 59 63 61 59 59 63 63 67 66 69 69 66 66 58 62 57 52 45
44 57 75 100 100 100 90 66 74 100 99 74 62 56 65 90 75 100 100 100 72 53 38 34 29 32 30 32 50 69 63 60 59 60 58 60 62 69 70 67 62 62 63 50 42 40 49 41 37
54 44 42 70 100 100 100 100 63 74 81 82 73 62 53 57 53 59 99 100 94 86 100 92 68 42 34 30 29 32 44 51 43 44 43 44 50 64 63 60 50 48 43 36 33 31 32 32 30
32 48 63 54 58 87 100 100 76 100 91 94 80 64 63 54 65 63 92 100 100 78 56 78 100 100 96 59 42 32 29 29 30 29 29 28 30 37 44 44 35 31 31 29 28 29 29 28 33
18 27 32 40 47 49 84 100 100 100 100 100 84 75 68 69 64 60 80 100 100 100 100 84 65 83 100 100 100 85 76 55 42 38 34 31 31 30 30 31 28 29 31 31 30 31 33 34 38
9 15 20 26 34 45 51 85 99 100 100 100 100 96 98 88 86 70 59 88 92 100 100 100 100 88 80 100 100 100 100 91 71 59 55 47 43 43 39 38 35 34 34 34 33 41 46 74 97
7 9 14 19 27 31 47 61 71 100 100 100 100 100 98 95 95 85 66 57 58 52 88 100 100 92 70 76 100 100 100 100 100 96 89 75 58 55 59 62 63 53 47 55 61 60 72 78 93
9 8 9 12 18 25 29 38 52 59 75 100 100 100 100 100 90 93 74 69 64 63 58 58 100 100 99 70 78 94 100 100 100 100 100 100 100 100 99 79 69 73 80 76 79 81 79 86 97

GFSSGP_250_rhum_237.txt.gz
RH
88 88 79 69 50 44 49 44 37 28 20 21 22 28 30 21 16 20 21 31 30 26 21 16 16 16 15 16 16 15 16 15 16 14 11 9 7 6 7 7 8 9 10 12 11 10 10 10 9
100 99 93 72 51 50 48 38 41 36 23 20 21 30 32 32 24 16 16 21 33 30 28 19 16 16 16 15 16 18 17 18 17 17 18 14 12 9 9 10 8 8 8 9 9 10 11 12 11
100 100 90 80 61 52 48 35 42 37 29 19 21 27 30 41 36 25 18 15 22 35 34 26 18 17 18 17 16 16 20 22 21 20 21 20 15 17 16 15 13 11 9 8 8 8 9 9 10
100 100 100 79 65 56 52 45 38 40 34 18 17 26 30 30 41 35 23 16 17 32 39 35 24 19 18 20 17 17 17 22 25 24 24 23 21 17 13 15 18 18 16 13 10 9 9 9 10
100 100 100 95 79 76 63 50 38 39 39 21 16 22 32 28 43 46 31 17 16 29 36 42 28 28 23 21 18 18 17 19 21 27 29 24 27 25 20 16 14 14 15 18 17 15 14 12 10
100 100 99 100 84 70 68 64 50 43 40 33 17 18 30 33 51 48 52 19 18 24 34 41 38 33 29 26 24 20 18 18 19 22 28 28 30 34 30 28 22 21 22 16 16 17 17 21 16
100 100 100 98 100 100 93 84 65 46 40 42 26 17 21 33 50 52 51 46 20 22 28 35 41 34 40 33 31 27 21 19 19 18 20 24 23 25 33 36 34 28 29 27 29 23 15 14 12
100 100 100 100 100 100 89 93 74 58 41 39 35 19 18 32 40 49 50 56 28 20 23 40 44 38 41 44 35 36 28 22 22 21 23 22 23 22 25 28 31 34 36 40 40 36 31 26 27
100 100 100 100 100 100 85 79 70 60 43 41 37 31 18 21 34 44 46 47 59 31 22 26 42 45 46 44 47 45 38 30 24 24 26 26 26 26 23 23 26 31 43 45 46 44 59 65 53
99 100 100 100 100 93 83 99 94 79 54 34 43 37 25 19 27 38 43 47 64 66 31 24 33 39 56 56 50 61 47 39 33 26 28 30 32 31 30 31 30 30 28 30 35 39 54 68 92
82 100 100 100 100 99 88 100 100 78 50 48 44 44 32 20 20 32 39 51 70 74 69 28 24 27 44 73 56 63 60 53 30 36 28 31 31 35 37 38 37 38 36 37 37 38 40 45 47
99 100 100 100 100 100 100 100 100 89 93 64 53 43 37 27 20 24 32 45 72 75 62 49 28 24 39 65 67 61 65 64 51 38 31 32 35 37 37 37 38 38 42 42 42 41 39 38 39
91 100 100 100 100 100 100 100 100 86 77 65 56 49 44 45 27 21 26 36 58 81 76 65 50 31 54 64 59 67 81 69 59 56 44 32 34 36 37 36 39 42 43 45 47 47 46 46 43
82 85 98 100 100 100 93 100 100 100 100 87 65 74 46 45 44 26 23 33 40 84 83 83 71 63 87 88 43 65 75 72 60 57 55 36 33 33 34 36 37 39 42 45 48 51 53 52 52
60 54 77 98 100 100 80 100 100 100 100 100 76 68 68 40 42 43 25 24 35 62 100 100 100 85 92 90 38 51 67 75 65 58 63 53 34 33 33 34 36 40 43 45 49 50 55 57 58
59 44 42 71 90 100 100 82 100 100 100 100 84 63 64 63 38 40 37 24 27 40 76 100 100 100 82 73 59 37 41 77 80 65 54 69 46 34 33 34 34 36 40 44 48 47 51 56 61
97 53 45 56 62 72 97 96 100 100 99 93 95 71 62 79 58 40 39 30 25 29 36 82 100 100 88 64 54 44 41 57 70 67 73 71 73 43 35 35 35 35 37 39 42 47 52 56 59
100 100 74 42 59 65 69 92 100 100 100 99 100 100 90 79 83 53 44 46 34 26 30 38 74 100 92 61 46 41 41 42 60 74 72 67 60 56 47 38 36 36 36 39 42 46 48 51 59
97 88 74 79 70 43 53 57 97 100 87 78 100 100 99 91 92 58 71 37 47 31 26 27 34 50 89 93 61 47 39 41 44 47 64 63 61 63 52 42 38 37 38 41 43 44 47 50 54
57 100 84 94 100 93 60 40 48 73 76 79 96 90 100 100 100 80 67 62 36 50 37 27 25 29 39 55 69 64 56 41 39 40 43 46 43 39 39 39 39 39 44 52 52 50 50 50 52
29 54 95 100 100 100 88 59 42 53 73 80 75 75 88 100 100 100 92 73 72 40 49 49 31 26 27 31 41 52 62 63 53 44 42 41 40 42 41 40 45 51 56 59 58 60 61 63 59
25 35 44 80 100 100 100 88 64 49 44 48 64 61 64 81 100 88 100 93 94 69 45 65 67 47 30 27 26 33 48 59 67 63 56 50 46 44 46 47 50 56 61 62 62 62 65 62 55
9 27 27 35 62 100 100 76 99 87 80 49 44 62 93 92 87 100 87 100 100 82 47 53 59 77 53 32 28 26 26 51 64 62 64 66 60 55 54 55 57 62 63 62 59 56 58 60 52
5 6 18 31 34 63 96 100 62 88 100 100 91 66 100 95 77 78 75 100 100 84 70 61 54 67 60 47 44 35 28 30 40 60 63 60 62 65 66 65 61 60 63 64 62 58 56 48 40
6 6 5 11 31 29 50 91 69 100 90 100 100 85 83 95 62 47 61 61 90 93 37 61 50 60 81 49 53 50 53 41 30 31 42 52 57 57 59 58 65 65 61 55 54 48 42 38 32
6 7 7 6 8 16 30 42 68 86 100 100 99 100 99 98 99 69 60 64 100 88 80 69 61 78 94 100 93 84 58 51 54 45 38 34 31 33 35 34 35 38 38 36 37 38 39 38 41
8 8 8 8 6 5 12 25 34 51 77 98 100 100 100 100 100 100 98 81 78 75 86 100 64 55 67 98 98 68 97 100 91 95 94 73 45 43 44 44 43 47 58 63 65 56 46 45 44
6 8 8 9 9 7 6 9 19 34 42 50 68 100 100 100 100 96 100 100 95 86 74 90 97 67 58 54 71 52 72 88 78 72 94 99 86 100 91 80 78 71 72 65 58 44 53 63 75
7 8 8 9 9 8 6 6 8 16 27 45 53 70 88 100 100 92 90 95 100 90 89 72 80 85 76 60 56 52 59 57 55 64 70 80 89 76 76 100 100 100 100 100 100 100 100 100 100
8 10 9 8 8 11 10 8 9 9 15 26 36 44 77 93 100 100 91 75 71 70 88 94 74 76 81 99 99 99 64 58 58 44 55 75 100 100 100 99 100 100 85 77 100 98 94 89 100

GFSSGP_250_rhum_240.txt.gz
RH
100 90 72 71 68 70 44 44 36 38 33 30 22 17 17 21 22 14 14 19 31 29 22 18 17 18 16 17 21 23 23 19 18 16 17 17 14 11 7 8 8 8 9 10 10 10 10 9 11
100 99 90 85 91 76 56 43 42 40 32 33 28 19 17 22 28 26 14 15 19 34 28 21 18 20 18 17 19 24 25 25 24 20 16 16 18 18 16 12 10 8 8 8 8 8 10 11 11
100 100 98 100 100 78 63 48 39 31 34 33 33 21 18 23 21 30 19 14 16 26 35 28 22 20 20 18 17 20 27 28 25 29 25 22 18 20 21 18 17 17 15 12 10 8 8 9 9
100 100 95 100 98 84 70 51 36 40 37 31 35 25 18 24 22 27 32 16 14 22 35 33 28 24 22 20 18 17 20 27 29 30 36 29 28 23 24 23 25 22 18 21 22 17 11 10 9
100 100 100 97 100 92 77 72 67 60 53 34 35 27 17 21 25 24 38 24 14 18 29 36 31 29 29 24 24 18 17 19 26 28 29 39 36 30 27 29 28 30 25 23 25 26 26 19 17
100 100 100 97 99 97 81 78 66 70 64 41 35 37 22 16 24 28 41 38 20 15 25 34 36 38 35 30 27 24 19 18 19 21 24 33 42 42 35 30 34 32 26 26 27 26 25 18 21
100 100 100 100 100 99 80 89 67 79 61 43 41 38 32 17 21 28 42 49 38 17 20 30 36 35 42 35 32 27 23 21 20 20 19 20 24 39 39 41 39 38 41 35 36 28 31 39 45
100 100 100 100 98 92 93 96 80 78 82 64 41 35 35 22 17 27 41 48 49 27 18 22 34 37 39 44 43 34 29 28 22 23 23 20 19 22 24 30 45 43 44 48 56 59 56 38 45
100 100 100 100 98 91 78 81 71 83 94 66 55 50 37 31 19 19 30 43 45 47 32 22 25 34 46 49 47 52 30 29 29 25 26 26 26 23 22 23 24 25 28 36 45 55 82 77 75
100 100 100 100 100 86 75 83 90 91 92 84 64 52 39 36 29 19 22 33 41 44 48 38 25 31 30 41 64 54 60 37 31 31 26 27 28 30 31 31 30 29 29 28 32 37 38 35 41
92 100 100 100 100 100 88 86 100 100 93 93 70 58 55 44 37 26 20 26 34 40 50 50 36 25 24 27 67 60 62 65 34 34 29 28 30 32 33 33 35 35 36 36 35 34 32 34 38
87 100 96 100 100 100 100 86 84 100 96 100 90 100 71 48 38 29 21 21 28 34 43 54 51 47 32 25 47 68 62 64 69 47 37 32 31 32 32 34 34 36 36 36 39 42 43 42 41
80 95 100 100 100 100 100 100 80 99 100 94 95 76 70 55 45 35 26 21 23 30 36 49 55 52 48 39 42 63 64 70 76 68 59 44 32 33 34 35 36 37 39 41 43 43 47 50 51
93 93 99 100 100 100 100 100 90 100 100 99 84 100 98 94 68 48 42 26 23 23 34 38 59 61 62 57 67 48 62 67 78 83 70 52 42 33 34 35 36 38 39 41 44 45 47 50 56
80 86 94 91 100 100 98 100 100 100 57 100 99 65 100 100 94 77 46 43 30 25 26 40 51 66 63 69 76 80 55 64 75 75 63 64 52 37 36 34 34 36 38 41 45 46 47 52 54
41 62 73 89 92 99 92 76 100 100 100 63 100 80 99 100 99 76 57 46 47 36 26 27 72 85 91 81 92 89 52 59 61 79 68 66 63 46 38 37 35 35 36 38 41 41 44 50 53
96 46 37 42 53 80 79 84 100 100 100 100 54 100 76 100 92 85 63 63 63 50 37 26 30 82 100 100 92 87 69 50 54 74 68 59 65 74 66 47 38 37 37 37 38 40 43 48 52
100 100 93 47 45 43 62 64 84 99 100 100 100 65 100 86 79 90 59 62 78 64 52 30 26 32 67 100 100 89 71 56 56 73 66 64 65 59 51 53 50 44 39 38 38 39 41 44 45
61 83 83 100 100 93 38 41 58 74 82 89 98 86 79 100 100 100 91 87 100 88 62 45 41 27 32 52 98 97 78 51 52 54 69 70 72 58 48 44 51 55 46 40 38 39 43 50 52
83 54 84 94 98 100 99 36 47 52 55 70 91 100 86 95 100 100 88 64 78 100 82 65 50 36 28 31 43 89 94 65 44 45 47 52 59 68 74 71 58 47 43 40 40 39 43 58 59
54 54 45 73 90 85 98 93 73 44 49 47 55 78 100 100 100 100 100 100 82 100 100 73 62 52 43 30 29 32 65 100 80 57 44 40 43 44 45 45 45 44 44 41 41 49 56 61 64
40 47 48 45 65 57 68 49 96 99 66 66 38 36 54 94 100 100 100 100 100 69 100 91 91 86 64 49 35 30 30 40 84 80 63 56 43 39 39 40 41 42 43 42 46 49 57 64 64
12 16 26 39 32 52 48 34 50 77 99 100 89 56 41 41 72 100 100 100 100 98 76 100 100 100 94 70 56 49 37 30 30 44 76 73 62 60 55 48 45 45 46 49 52 56 58 60 62
7 7 6 8 10 15 32 45 28 44 66 96 100 100 69 57 46 56 83 100 100 78 59 72 96 100 100 100 71 59 56 53 38 30 29 37 57 68 70 68 67 68 66 64 63 61 61 63 66
7 7 7 6 6 5 7 18 18 33 39 51 74 100 100 97 78 79 68 76 81 66 73 62 54 76 100 100 98 68 53 53 57 52 36 30 28 36 50 56 63 65 61 63 67 66 60 52 46
7 6 6 6 7 5 7 6 6 17 32 45 56 73 94 100 100 87 82 68 63 59 63 76 84 60 96 100 100 86 78 55 54 57 57 58 47 34 31 32 38 48 50 47 43 41 40 36 35
8 7 7 6 6 6 6 6 7 6 13 44 51 47 69 89 100 100 97 77 70 66 61 61 81 89 77 80 98 85 79 84 66 74 88 67 66 66 57 48 42 42 46 42 38 36 38 43 52
9 6 6 6 6 6 7 6 8 8 7 11 27 43 50 74 92 100 100 98 91 83 63 69 83 78 75 69 84 100 100 100 85 76 100 95 96 100 100 83 88 92 79 76 72 69 70 59 68
10 7 7 6 7 6 7 10 8 9 10 8 11 23 42 59 71 84 100 100 100 100 100 76 56 55 72 75 69 84 100 100 99 81 82 76 96 89 91 100 100 100 100 97 99 98 100 100 100
12 9 9 8 8 6 7 11 10 10 11 11 10 12 24 39 51 63 80 96 100 100 100 93 90 73 63 55 60 63 87 100 100 100 84 84 66 79 63 76 96 90 100 100 100 96 94 98 100

GFSSGP_250_rhum_243.txt.gz
RH
99 99 93 91 68 60 73 39 44 32 32 29 28 28 20 18 17 19 14 15 20 26 28 23 21 20 18 16 20 20 21 22 20 21 18 17 15 17 12 9 9 10 11 10 9 9 9 14 23
92 99 100 97 87 82 82 55 47 42 38 26 32 27 26 19 17 22 18 13 18 27 31 24 22 20 21 17 18 19 22 22 26 24 24 25 24 21 23 22 10 8 9 9 9 9 9 9 8
100 90 100 100 88 90 90 73 56 48 47 42 42 27 25 19 18 17 19 12 17 25 31 30 25 24 21 19 17 18 18 22 24 27 27 29 28 29 26 28 29 28 20 18 14 10 10 10 9
100 99 100 100 100 100 86 77 62 55 60 44 38 29 28 23 16 18 18 17 13 21 31 32 30 28 26 21 19 18 18 20 24 27 27 27 27 29 29 28 31 32 38 39 32 28 24 17 14
100 79 100 100 100 100 82 82 74 68 48 58 41 41 33 30 18 17 19 22 14 15 26 33 35 34 28 28 21 20 19 22 22 23 26 26 26 28 31 32 32 33 38 46 38 27 28 31 29
100 76 94 100 100 93 84 94 76 76 69 78 69 46 38 28 26 17 20 23 24 16 21 32 34 38 36 29 27 22 23 21 20 24 21 24 27 27 28 36 41 42 54 46 48 56 58 44 37
100 100 98 81 100 95 86 100 82 88 83 65 71 57 44 37 32 21 18 28 34 23 16 25 31 35 41 43 33 28 28 22 23 22 23 26 24 30 31 26 34 48 52 64 60 52 57 59 59
100 100 100 95 68 100 100 100 97 98 82 98 83 54 48 47 36 31 18 23 38 35 18 17 27 35 38 43 48 30 30 28 24 24 24 23 23 26 29 33 28 28 39 52 70 75 70 75 78
90 100 100 100 75 72 61 98 96 84 82 100 98 66 57 52 41 35 29 18 26 40 41 19 21 27 39 45 50 54 30 27 32 26 25 25 26 27 29 30 30 33 38 52 63 56 64 83 68
92 100 100 98 100 65 68 99 100 87 84 100 100 85 71 59 44 38 32 25 18 28 41 41 21 22 32 28 34 55 63 39 30 33 28 27 28 30 31 32 33 34 34 34 33 33 35 40 42
93 100 100 100 100 94 49 75 100 100 100 100 100 85 81 65 49 43 37 31 22 20 29 36 41 22 23 26 26 56 55 63 34 32 32 32 30 31 33 34 34 34 35 36 37 36 36 37 38
82 94 100 100 100 100 94 42 74 100 100 100 100 95 99 89 67 40 41 34 27 20 19 28 38 44 27 24 24 31 62 57 68 40 42 36 32 34 34 34 36 37 39 40 41 42 42 42 42
94 90 96 100 100 100 100 87 37 60 100 100 98 100 100 91 78 61 56 51 30 24 20 20 30 40 47 36 25 32 58 62 59 74 60 50 41 34 35 36 35 37 39 41 43 45 44 45 48
100 100 93 100 100 100 100 100 76 53 49 91 80 100 100 90 88 82 69 78 51 32 24 21 21 31 45 47 52 37 46 57 62 66 66 68 60 44 33 36 36 36 37 39 42 44 47 50 48
84 96 100 98 100 100 100 100 100 100 58 36 68 47 98 100 100 100 92 85 70 52 37 27 23 23 34 48 56 65 58 51 56 62 69 60 68 52 42 35 36 37 37 37 39 42 44 45 48
48 62 83 91 95 99 91 98 100 100 84 62 50 97 92 92 98 79 93 97 93 74 72 36 28 25 25 36 59 70 70 77 56 62 69 72 58 63 51 39 37 37 36 37 38 39 40 41 43
89 62 50 65 66 79 86 99 100 100 85 93 84 65 98 92 78 90 98 100 100 98 78 51 41 39 28 32 86 85 88 77 69 66 61 80 67 59 65 66 52 49 40 39 38 38 39 39 42
49 68 60 58 81 50 70 80 97 100 100 77 74 80 80 99 89 84 100 100 98 95 91 80 49 56 46 28 45 100 94 95 86 60 58 87 69 61 66 71 55 56 54 49 44 40 39 39 40
89 57 34 42 72 78 55 64 74 82 90 98 88 72 77 100 100 96 83 100 100 84 47 97 71 69 63 41 28 29 100 100 86 75 61 59 74 60 65 61 53 50 50 51 51 48 43 40 40
98 100 83 56 49 63 97 66 43 53 62 77 68 66 76 82 100 100 100 100 100 100 88 91 93 100 96 60 39 28 24 72 100 87 72 61 64 63 56 63 60 55 49 50 55 55 47 40 41
54 54 53 48 56 60 41 81 91 94 50 53 55 52 48 51 75 99 100 100 100 100 100 100 100 93 94 93 55 45 30 27 39 98 87 65 60 66 65 61 61 69 72 72 64 47 42 44 43
68 51 42 46 58 57 56 37 60 80 93 95 73 76 70 49 39 61 88 93 100 100 100 97 100 99 97 98 84 53 46 34 31 30 50 99 77 54 56 58 58 61 56 49 44 43 44 45 44
38 47 38 38 40 54 45 43 36 44 43 67 100 100 100 100 79 40 46 74 77 100 100 100 100 100 100 100 87 64 59 67 43 34 31 32 74 91 68 46 41 41 41 40 40 42 43 45 47
9 9 9 10 11 11 17 33 40 42 47 52 77 95 100 100 100 93 71 39 55 66 85 100 100 99 98 100 92 86 66 81 83 74 51 34 32 39 52 64 65 53 46 44 44 46 53 63 67
10 10 9 8 8 7 7 7 8 12 26 36 59 80 91 91 92 100 96 65 35 37 62 68 100 100 100 96 100 100 84 92 95 96 78 62 54 49 36 34 42 64 74 75 74 74 75 73 69
11 10 8 7 8 7 7 7 7 6 8 20 39 54 70 87 90 89 92 99 77 54 48 58 66 90 100 100 100 100 100 79 83 100 99 81 68 59 58 52 46 39 35 39 51 58 58 56 54
13 10 9 8 7 7 8 8 7 7 6 6 13 35 50 60 74 77 76 74 96 94 66 47 55 54 83 100 100 100 100 92 71 66 100 96 97 82 59 59 67 60 60 52 41 36 36 37 38
18 14 12 11 10 8 8 8 8 8 8 7 7 8 15 32 52 64 53 60 56 76 90 88 80 71 64 76 100 100 100 100 96 59 100 100 96 96 92 88 72 86 76 71 65 65 61 55 70
18 16 14 13 11 10 9 9 8 8 8 8 7 8 9 11 22 44 54 49 58 43 58 75 94 100 89 73 81 100 100 100 93 69 79 73 100 100 98 100 100 94 97 87 82 95 100 96 97
24 23 20 18 14 10 8 6 6 7 9 10 9 9 9 8 9 10 16 30 48 52 52 61 69 90 100 100 98 83 99 100 100 66 67 54 100 100 82 100 100 100 92 100 98 100 100 100 100

GFSSGP_250_rhum_246.txt.gz
RH
69 80 100 98 100 87 59 57 55 43 40 34 44 32 31 30 18 14 12 16 20 28 23 25 24 20 17 16 17 14 16 18 21 23 29 27 25 24 10 8 9 9 9 9 10 20 24 22 21
65 80 92 100 100 98 80 72 58 45 44 45 43 27 31 28 23 17 14 13 21 26 30 26 26 23 21 18 16 15 16 18 19 23 28 27 28 39 32 22 12 9 9 9 9 8 8 9 10
100 100 94 88 100 100 84 83 77 54 52 52 43 39 35 30 25 18 17 15 17 22 29 31 29 28 24 24 21 17 15 16 18 21 24 28 30 40 45 34 33 30 23 21 18 13 9 9 9
91 100 100 81 91 100 75 79 82 65 61 62 56 50 40 36 31 20 18 19 13 21 29 33 33 32 28 23 26 20 18 17 16 19 20 23 26 31 37 44 53 45 40 37 39 32 23 19 18
98 100 100 80 62 92 99 100 98 79 71 62 69 57 42 37 35 28 19 21 20 14 24 32 38 38 34 27 24 25 23 20 18 18 19 20 22 26 33 42 44 45 49 59 57 56 52 46 40
71 100 100 84 65 73 100 98 85 95 81 75 79 59 40 36 36 34 25 20 22 19 16 29 31 35 40 38 29 28 24 24 22 20 20 20 22 24 27 28 33 43 44 49 56 60 70 69 65
94 100 100 95 80 67 74 100 71 90 94 93 90 70 58 41 39 35 31 21 22 30 22 20 28 34 38 43 44 29 27 25 25 24 23 24 23 24 26 28 30 32 38 47 59 58 71 75 85
83 96 100 100 95 80 88 84 98 100 100 98 96 93 81 48 53 45 35 29 20 30 40 22 20 30 38 44 47 41 26 32 27 26 26 27 30 29 29 28 28 29 30 47 50 44 45 53 79
98 93 90 73 88 96 100 90 100 100 100 100 99 82 98 59 61 50 41 31 28 21 37 43 28 23 28 42 36 51 42 30 34 28 27 29 31 33 33 34 33 32 32 31 31 35 35 41 53
100 100 99 94 67 45 73 83 89 100 100 100 100 89 87 76 71 54 53 37 30 26 20 34 44 37 22 29 29 38 53 52 32 36 33 29 32 34 36 36 37 38 38 38 37 38 38 40 45
100 100 98 100 93 66 43 51 58 57 93 100 100 100 86 87 85 63 55 42 37 30 26 19 26 41 39 23 26 26 52 52 48 34 35 34 31 32 34 36 37 40 41 40 39 40 42 45 47
100 100 100 100 100 94 78 54 47 44 74 99 100 100 100 70 89 90 68 47 39 41 31 24 20 24 38 42 24 23 25 57 57 49 40 41 35 33 34 34 36 37 38 40 39 38 39 38 37
100 100 100 100 100 100 99 94 78 53 47 72 67 100 99 99 72 100 86 56 52 44 41 29 22 19 22 34 43 34 24 44 65 61 56 46 50 36 36 34 35 37 39 40 41 42 42 40 41
100 100 100 100 98 100 100 100 100 94 46 44 61 58 100 100 100 91 95 72 74 70 67 45 35 30 20 19 32 45 39 32 52 58 57 67 60 56 42 34 36 36 38 37 39 40 42 42 42
100 100 95 79 100 93 100 100 98 95 100 68 55 89 56 100 100 100 89 100 97 92 69 61 52 65 42 22 20 28 50 49 43 50 56 56 64 65 53 43 35 36 38 37 37 38 40 40 40
72 89 84 80 80 89 100 100 100 98 97 100 100 61 68 53 100 98 100 91 100 100 85 73 78 69 55 31 22 23 30 44 51 50 47 48 54 63 61 49 44 36 37 37 38 38 38 39 40
46 57 65 85 76 68 80 98 100 100 99 97 100 100 94 61 52 78 69 100 100 75 82 95 84 74 71 46 33 26 24 49 51 58 57 51 51 47 58 54 52 44 42 38 38 39 39 39 39
49 50 58 59 60 48 60 68 90 95 100 99 88 99 100 100 77 64 100 94 100 88 62 89 94 79 71 76 61 44 38 30 57 69 73 62 61 52 54 63 56 56 63 59 56 52 48 48 45
67 46 62 67 68 55 47 38 53 62 84 97 95 85 89 100 100 99 83 100 100 100 100 87 95 99 70 75 78 49 45 36 51 89 94 86 74 56 80 62 64 71 72 58 53 52 52 51 50
77 63 85 100 100 76 86 57 58 60 53 62 71 78 88 92 90 99 100 100 100 100 100 100 99 95 95 97 63 89 88 51 34 31 94 100 89 65 69 77 64 59 63 59 53 52 49 47 53
99 97 92 100 91 78 66 73 66 52 44 47 42 47 56 69 74 76 88 100 100 100 100 100 100 100 95 92 54 99 85 78 62 39 29 31 74 94 71 65 73 62 60 63 64 60 55 62 69
50 53 71 76 100 100 66 48 59 100 94 75 46 34 32 34 41 69 71 77 97 97 87 83 100 94 100 95 70 66 100 88 77 63 46 36 28 66 100 88 76 75 74 64 62 59 63 66 62
82 75 71 66 74 53 63 57 76 51 76 98 100 72 43 43 37 47 79 74 65 80 86 73 70 97 100 100 90 81 91 100 81 85 57 50 39 31 34 63 89 85 78 76 72 62 59 58 50
20 21 24 28 33 36 40 43 45 39 45 59 57 99 93 46 52 52 52 65 75 59 55 61 64 62 95 100 100 100 100 100 100 100 84 61 48 45 40 34 32 52 81 79 72 55 44 41 41
11 11 11 10 10 10 10 10 11 13 15 23 46 51 51 52 44 44 44 57 79 78 54 43 54 64 98 95 100 100 100 100 100 98 100 76 63 51 48 58 58 49 34 34 46 69 74 66 61
13 12 12 11 10 10 9 8 8 6 6 7 10 20 43 49 50 41 45 50 52 74 86 74 76 85 78 100 100 100 100 100 100 100 91 97 94 82 65 58 54 74 71 54 42 38 42 54 64
13 14 13 12 11 9 8 7 7 8 7 6 6 6 7 8 11 25 38 59 44 52 55 43 66 98 99 100 100 100 100 93 99 100 100 100 100 100 97 75 64 62 81 83 60 64 54 45 43
17 18 18 18 15 12 11 11 9 9 9 7 7 7 7 8 8 8 14 29 41 41 49 42 39 54 99 100 100 100 100 100 100 99 92 88 86 100 100 98 83 60 44 53 100 93 88 80 66
21 22 21 19 17 14 13 12 12 11 9 9 9 7 7 7 8 9 9 10 17 31 46 51 48 46 60 100 100 100 100 100 100 100 100 100 100 90 82 72 99 64 42 52 94 100 100 97 93
22 24 22 20 18 18 15 14 14 13 12 10 9 9 9 9 8 9 10 9 9 12 17 22 25 35 46 83 100 100 100 100 100 100 100 100 100 72 65 100 100 70 81 99 100 91 100 100 95

GFSSGP_250_rhum_252.txt.gz
RH
61 66 84 71 81 85 70 74 72 67 48 44 32 34 28 28 23 21 32 35 28 23 30 29 24 26 21 19 20 21 25 24 15 17 19 13 7 7 7 16 22 21 16 11 12 14 15 17 19
54 64 73 82 85 88 84 91 88 77 57 59 42 37 32 29 29 23 22 30 28 22 31 31 28 26 26 23 20 21 25 22 22 24 26 22 12 9 7 7 8 16 19 19 19 18 17 17 18
62 67 77 82 78 85 100 100 98 97 73 66 57 49 38 35 35 28 22 23 29 26 31 32 30 32 29 26 22 21 21 27 24 25 31 37 22 24 26 24 14 8 8 9 13 16 17 17 17
75 69 72 59 67 73 85 94 97 100 91 75 63 66 44 43 37 34 26 20 25 33 22 33 35 34 36 30 26 23 23 22 27 24 24 28 34 39 31 28 36 36 35 27 15 10 14 14 13
100 83 77 81 95 100 91 83 76 100 98 93 70 69 66 44 39 34 34 21 19 29 36 27 31 37 39 38 30 28 25 25 24 24 24 23 24 34 48 51 48 40 36 30 32 35 38 43 43
100 92 64 69 100 100 91 69 81 100 100 97 92 76 78 64 43 40 36 31 19 19 32 32 28 31 39 40 38 30 28 27 27 27 24 22 21 23 22 30 44 50 35 30 31 31 37 39 41
100 100 95 63 56 100 100 85 78 97 88 100 100 84 81 92 64 52 45 45 36 19 20 36 23 30 32 43 43 42 32 30 28 30 29 26 24 21 20 23 25 27 29 29 28 28 29 30 31
100 100 100 94 78 100 100 98 82 82 86 54 100 88 81 97 92 70 57 40 46 37 22 20 37 22 33 40 40 52 44 35 32 32 32 30 29 28 24 22 22 22 19 20 19 21 22 23 22
100 100 100 100 88 86 100 100 79 72 73 70 51 100 96 99 100 71 63 54 53 44 39 25 20 38 31 27 34 34 52 46 35 34 34 33 32 30 31 31 30 28 26 24 22 21 22 22 22
100 100 100 92 72 75 89 95 97 60 51 65 67 45 93 88 100 100 96 65 63 53 41 37 24 20 37 45 31 26 28 49 50 41 35 33 34 34 30 34 34 34 34 33 31 31 29 29 28
96 98 88 68 53 55 75 81 93 99 78 62 52 60 46 37 64 94 91 78 74 75 45 39 35 27 19 23 39 43 27 27 44 51 43 36 34 34 34 34 36 36 35 35 36 36 36 37 38
92 97 90 91 83 63 48 49 79 83 90 88 80 68 56 55 45 88 85 75 44 68 66 43 42 41 30 21 19 30 44 38 27 39 51 47 39 37 34 34 36 38 37 36 34 34 35 37 38
93 100 99 98 99 90 69 60 51 65 82 100 100 94 76 65 62 48 64 80 79 37 62 48 48 50 34 28 23 21 22 35 46 35 44 56 49 46 42 34 34 35 37 37 37 35 34 35 37
100 100 100 100 100 97 87 74 55 55 54 72 91 99 94 76 64 59 46 54 68 76 49 57 58 56 60 41 47 43 39 26 25 43 37 50 60 52 50 45 36 34 36 37 37 37 36 34 34
100 100 100 100 100 100 100 100 100 75 48 58 56 90 90 81 76 61 58 59 59 60 79 70 62 59 65 60 55 47 52 50 32 22 43 49 46 62 58 52 52 43 34 34 35 36 37 38 38
100 100 100 100 100 100 98 99 100 96 82 53 46 44 60 80 93 96 83 72 57 67 59 75 75 80 62 64 56 43 60 59 45 36 24 30 48 48 57 61 59 57 50 39 35 36 36 36 37
100 100 100 100 97 99 100 96 100 100 100 100 88 62 45 61 74 88 100 100 100 99 95 69 79 77 69 63 71 62 60 69 63 43 44 36 23 41 50 57 62 61 62 53 44 36 37 36 36
100 94 100 100 100 95 93 82 90 98 96 97 97 98 86 72 50 50 91 100 100 100 100 100 98 89 99 86 73 80 66 48 61 59 45 62 41 34 29 52 62 60 59 60 56 48 42 40 38
91 94 92 92 98 94 86 91 90 76 75 75 82 79 70 57 55 55 46 47 91 100 100 100 100 94 78 82 100 85 69 59 54 58 55 49 51 52 41 33 35 58 65 64 62 61 49 49 45
52 59 69 68 70 70 68 71 71 77 75 68 61 55 56 61 57 50 55 58 46 76 100 100 100 100 96 86 78 99 100 89 73 76 71 56 55 50 52 59 44 42 55 69 74 71 62 61 54
52 56 48 43 50 54 49 46 43 44 49 50 42 40 42 41 43 46 44 47 52 45 61 90 100 100 100 100 86 75 78 96 95 84 86 75 51 40 38 72 55 47 80 91 88 88 78 73 73
100 100 83 80 76 88 61 40 35 44 53 49 43 35 33 36 42 49 50 38 36 39 44 46 62 89 100 100 96 91 97 100 100 90 76 86 96 82 62 45 78 49 45 50 50 51 86 83 82
86 97 95 57 54 79 95 78 82 68 67 61 46 36 37 50 54 40 42 44 33 28 26 27 34 46 67 92 99 90 92 100 100 100 100 100 92 96 96 70 36 68 62 55 50 40 35 33 64
94 100 100 100 86 86 74 91 86 64 46 50 58 75 67 69 95 94 70 48 39 38 35 35 35 31 38 44 57 73 81 83 99 100 100 100 100 96 95 100 79 50 53 61 40 34 37 34 32
39 50 58 71 70 62 59 62 75 78 74 57 63 67 68 76 66 61 58 80 75 75 75 62 72 49 39 32 36 39 70 58 67 83 95 100 100 100 100 97 100 97 72 57 46 58 72 53 47
19 19 20 20 24 26 27 31 37 35 31 26 23 27 38 45 37 29 22 24 41 50 52 77 83 67 75 85 65 41 43 67 75 79 72 76 91 100 100 100 97 98 100 83 75 66 61 66 62
14 14 14 13 13 13 12 12 12 12 12 12 11 10 10 9 9 9 9 10 10 11 12 18 56 69 79 78 71 58 63 63 70 88 91 99 90 78 94 91 99 100 88 100 87 82 76 71 89
18 17 17 17 16 15 15 14 14 13 13 12 11 10 10 9 8 8 7 7 8 8 7 7 8 11 21 32 36 48 60 71 68 56 72 100 100 96 91 90 89 85 98 98 100 94 87 95 95
19 18 16 15 14 13 13 13 12 12 12 12 12 11 9 9 8 8 8 8 7 6 6 7 7 7 8 9 12 20 31 48 69 55 60 85 91 95 93 94 80 87 85 89 92 100 100 100 100
17 16 15 15 15 15 15 16 16 16 16 16 17 15 14 13 11 9 9 9 9 10 8 8 7 7 8 8 10 11 14 25 36 65 73 67 83 85 75 100 97 78 78 86 92 88 86 100 100

GFSSGP_250_rhum_258.txt.gz
RH
78 100 99 92 81 90 66 66 74 66 73 80 61 38 36 36 38 32 30 22 18 19 30 32 34 30 26 25 23 22 25 25 20 12 8 6 9 11 11 7 8 13 31 49 64 66 61 67 70
77 100 100 86 90 100 70 74 74 68 73 92 65 56 42 38 44 32 32 28 19 19 23 34 35 36 29 26 26 24 22 30 27 19 12 8 6 8 12 12 10 8 9 14 22 32 39 44 35
81 100 100 78 81 89 94 71 78 79 75 98 91 57 57 51 47 36 34 31 22 24 22 28 36 37 37 30 27 26 26 24 30 24 20 13 9 7 7 10 12 12 11 10 10 12 13 16 17
95 100 100 68 54 65 82 77 76 93 100 98 100 68 65 58 49 43 38 35 30 22 27 27 32 38 37 38 30 28 26 26 25 25 25 22 15 10 9 7 8 11 12 13 13 14 15 16 16
100 100 97 68 51 62 66 85 87 61 98 100 96 89 77 62 60 55 44 42 38 29 26 36 30 42 38 41 38 32 29 28 28 27 24 24 22 17 13 12 10 8 9 11 14 14 14 14 15
100 100 98 72 62 69 61 73 82 73 49 58 66 77 99 68 67 74 55 48 46 41 32 31 43 30 44 39 44 41 34 32 32 30 28 25 22 21 19 18 16 15 15 12 8 9 11 13 14
100 100 99 75 51 75 62 75 77 88 100 74 61 66 100 93 78 69 78 56 51 46 44 35 31 48 38 45 41 42 43 37 34 34 31 28 25 20 18 20 19 22 19 22 24 15 14 13 13
100 100 100 92 84 100 82 97 100 100 100 98 71 51 72 70 73 76 77 80 57 50 45 43 39 26 51 43 46 40 42 45 40 38 35 32 28 27 22 20 18 21 24 24 24 25 21 18 17
100 99 74 92 52 100 100 95 59 98 100 100 91 65 86 58 50 54 54 80 70 58 50 46 40 33 24 44 53 52 42 37 44 40 40 36 33 29 26 23 21 18 18 18 21 21 21 21 20
100 100 72 71 100 99 95 100 100 95 100 90 94 75 54 52 48 47 41 68 79 82 66 51 47 35 28 26 27 51 53 47 43 41 43 39 37 35 31 27 23 21 20 18 19 19 19 20 21
95 78 100 100 100 100 97 100 84 100 100 90 100 99 82 72 67 59 60 52 67 88 100 75 46 55 33 32 32 27 27 48 56 48 43 47 42 39 38 37 30 26 25 24 24 23 22 21 19
98 100 100 100 100 100 100 100 100 100 100 90 86 95 99 100 73 55 58 63 62 86 70 68 79 66 57 40 38 35 28 21 32 58 51 50 46 45 42 41 42 34 30 28 29 27 27 26 28
100 89 92 100 100 99 100 100 100 97 100 80 59 65 67 64 58 57 54 71 63 63 62 62 81 94 76 61 51 40 38 27 21 22 35 61 58 50 47 46 41 43 42 33 30 30 30 31 34
82 100 100 100 91 62 75 99 100 90 79 77 66 62 60 64 66 66 51 53 76 88 61 64 61 73 82 74 58 54 37 33 32 29 32 25 45 63 55 51 50 46 43 44 41 34 32 32 31
98 88 67 88 92 76 54 65 72 79 74 82 82 74 74 74 64 65 53 48 40 38 53 60 45 48 51 56 74 61 57 44 43 42 39 35 31 28 47 61 56 53 50 48 44 43 42 34 33
100 100 100 92 100 92 82 67 77 74 79 74 77 85 92 91 82 80 77 69 51 42 37 39 36 43 49 46 50 55 58 64 53 51 49 48 44 38 30 31 51 64 57 54 55 51 49 48 44
95 99 100 100 100 100 100 95 99 87 91 100 100 98 94 100 100 100 93 70 64 54 52 48 51 46 39 44 55 54 62 60 59 67 59 50 54 53 49 43 39 36 46 62 59 61 57 57 56
99 91 91 96 100 100 99 95 100 99 90 67 58 63 84 97 100 100 100 100 96 98 99 91 79 82 88 90 68 61 64 66 76 65 66 69 64 64 59 56 49 44 37 28 49 65 60 60 58
100 96 90 100 100 100 100 100 100 100 100 100 100 90 74 64 68 72 79 100 100 100 100 100 92 98 100 86 74 93 100 92 72 62 64 78 84 79 67 64 59 51 41 42 31 32 50 64 62
100 100 100 92 100 100 100 100 100 100 100 100 100 100 100 100 100 97 90 99 100 100 100 100 96 98 96 86 93 85 71 76 81 91 87 71 54 90 91 74 70 64 61 46 42 38 32 33 38
100 100 100 100 98 99 100 100 100 100 100 100 100 100 100 100 100 99 99 100 99 99 97 94 82 74 72 66 72 70 66 62 59 57 54 61 99 78 69 81 91 75 67 65 61 57 46 40 41
100 100 100 100 100 86 96 97 99 100 100 99 100 98 93 90 88 86 85 87 74 69 66 60 60 59 57 59 58 54 53 52 50 69 67 53 49 80 98 81 60 73 86 75 70 70 68 41 39
100 100 100 100 95 99 97 80 79 83 80 79 75 72 68 65 63 63 60 60 48 41 44 49 48 56 64 52 45 40 42 39 42 43 45 99 82 57 49 68 96 76 59 86 93 88 80 70 67
100 100 100 95 93 69 62 60 58 55 53 50 45 46 46 46 42 42 39 55 63 75 69 45 37 33 46 64 76 69 57 37 39 43 38 42 81 89 90 64 54 90 91 82 78 81 89 84 85
100 100 100 100 100 100 100 100 60 41 38 40 38 38 39 36 30 37 40 32 35 36 46 50 44 52 60 49 45 46 56 61 49 46 39 38 46 57 68 74 68 70 64 83 95 88 88 100 99
100 100 100 100 100 87 76 79 75 82 63 69 64 75 93 83 64 66 75 60 58 64 66 56 49 35 39 52 51 49 50 45 37 32 34 40 46 52 56 62 63 59 66 52 45 71 100 99 100
100 100 100 100 99 99 100 100 98 87 76 68 64 56 39 29 26 22 21 22 20 18 20 20 20 20 20 20 21 23 25 24 25 32 34 30 46 52 52 68 64 68 70 56 61 39 36 66 99
81 91 96 88 78 67 62 61 52 35 28 22 22 21 19 19 19 18 16 14 13 12 11 11 10 10 10 9 9 9 9 9 9 10 12 20 29 31 34 37 60 81 83 86 63 50 65 53 72
28 30 34 42 47 40 36 32 23 20 19 20 19 18 16 14 12 11 11 11 10 10 10 10 10 9 9 9 9 8 8 8 7 7 7 7 8 10 14 22 34 57 79 90 100 99 66 66 66
27 24 21 21 21 22 21 18 20 20 19 17 15 14 14 14 14 13 12 12 11 10 10 9 10 10 11 12 12 12 11 10 10 9 7 6 6 7 7 8 13 26 57 72 100 100 100 72 85

GFSSGP_250_rhum_264.txt.gz
RH
57 73 97 100 94 77 64 51 98 80 62 67 54 59 90 64 41 45 38 33 22 20 18 22 28 35 37 36 30 28 24 18 15 9 12 10 12 37 75 100 84 100 100 76 68 64 59 89 92
65 80 90 100 96 85 76 48 68 80 66 65 62 60 96 74 57 51 44 41 27 25 22 20 22 32 37 42 38 32 30 24 17 16 10 12 10 8 52 86 92 86 100 100 77 83 82 80 75
88 77 96 100 100 74 75 48 58 61 58 50 53 70 93 98 74 56 51 43 33 31 30 23 22 22 33 37 40 38 34 32 25 17 16 11 11 11 8 45 77 79 74 63 78 69 43 41 54
100 72 81 99 100 70 66 66 42 53 43 46 50 87 95 100 99 74 68 53 46 46 38 29 27 23 25 39 36 37 40 37 34 26 16 16 13 9 12 9 12 45 68 86 75 67 66 78 64
100 74 73 88 93 78 60 74 44 32 39 55 53 61 95 94 94 88 85 60 63 56 47 38 34 31 24 25 34 36 34 38 39 34 28 19 15 16 8 10 11 9 10 20 39 50 51 48 53
100 88 56 77 91 87 64 83 57 43 37 45 60 68 54 61 63 84 93 80 75 67 55 56 43 38 28 26 23 30 39 36 36 39 37 30 22 18 16 12 8 11 12 12 12 13 15 16 18
100 88 72 72 97 72 68 87 95 67 61 45 61 76 73 81 45 63 79 69 78 77 68 68 54 50 36 28 27 32 33 42 38 37 39 39 34 26 19 18 16 11 7 10 13 13 13 14 15
100 100 91 72 78 72 89 100 100 92 80 49 60 77 84 81 64 65 72 75 72 67 85 78 69 58 53 40 32 30 35 37 38 37 37 41 40 38 31 20 18 17 16 12 8 6 7 9 10
100 100 78 57 58 82 96 100 100 92 72 52 66 71 70 82 100 80 100 78 73 68 73 88 85 93 72 55 46 37 31 35 33 34 36 35 41 40 40 37 25 20 18 18 16 12 10 8 8
100 100 80 57 54 85 100 89 100 99 81 70 98 100 88 98 100 88 74 59 54 52 46 50 57 87 58 60 65 42 41 41 39 31 33 38 37 40 42 40 44 29 23 19 19 18 17 15 13
100 100 81 62 55 94 100 100 96 100 91 99 100 100 100 98 99 97 84 73 68 57 52 48 50 53 57 54 72 79 48 47 43 42 29 27 34 39 40 42 40 43 36 28 24 19 18 18 19
96 100 85 75 58 61 100 97 78 100 100 98 100 66 98 100 100 96 80 99 89 72 58 55 61 65 62 67 62 72 91 74 55 48 44 35 24 30 34 39 42 43 44 44 33 30 27 26 22
100 100 86 78 75 62 94 100 96 100 100 100 100 100 86 94 100 89 100 93 75 64 57 51 51 59 72 92 77 53 51 60 71 63 49 44 36 27 34 34 33 36 43 45 48 43 34 32 30
100 100 100 95 100 100 95 100 75 100 100 100 100 100 100 100 98 100 96 84 75 70 60 52 51 46 41 38 51 59 65 56 55 52 63 50 42 41 34 34 41 38 32 40 46 49 49 46 41
100 100 100 95 100 100 98 89 71 92 100 100 100 92 99 100 100 100 98 88 79 76 75 62 59 54 43 40 37 38 41 46 44 45 50 60 46 44 47 40 41 37 44 42 37 36 44 50 50
100 100 100 95 85 98 99 100 99 95 98 94 87 69 60 64 86 89 72 74 73 67 64 63 56 49 45 42 42 39 39 36 35 36 40 49 57 56 52 48 50 50 47 45 49 45 45 33 39
100 81 98 87 95 96 100 100 100 98 87 90 97 100 100 94 86 82 78 68 55 52 57 67 68 55 45 42 45 42 42 38 39 31 32 33 42 54 60 58 65 72 68 61 49 51 52 52 44
100 100 100 95 100 100 100 100 100 98 100 98 100 100 100 100 92 87 80 72 77 79 70 64 62 61 59 58 59 48 49 55 52 48 46 41 36 39 42 61 66 66 75 78 81 66 58 57 57
100 100 100 100 88 85 78 98 100 100 100 100 100 100 100 100 100 100 100 100 93 94 94 84 89 100 100 100 89 72 63 69 82 76 73 66 60 49 45 38 43 36 40 48 65 72 81 79 72
100 100 100 100 95 92 68 61 80 83 94 99 100 100 100 100 99 100 98 95 94 93 96 87 91 100 100 100 100 100 100 100 100 100 100 91 97 93 75 58 59 66 61 51 47 40 37 45 61
100 100 100 100 100 100 100 98 84 80 61 89 100 100 100 100 100 100 99 93 89 89 94 95 94 96 100 100 100 100 100 100 99 92 89 88 90 83 81 82 79 74 75 74 73 63 55 57 49
100 100 100 100 100 100 100 91 89 86 91 86 100 100 100 100 98 91 91 95 100 98 100 100 100 100 100 100 98 90 87 82 71 60 60 61 56 54 51 52 61 64 58 55 48 48 49 50 49
99 100 100 100 100 100 100 100 100 100 100 100 100 100 100 100 100 100 100 100 100 100 100 100 100 94 87 81 75 65 56 49 48 45 39 37 37 36 35 34 34 36 53 64 56 45 42 39 41
100 100 100 90 100 99 92 88 91 99 100 100 100 100 100 100 100 100 100 100 100 99 98 79 70 69 56 49 46 38 29 26 26 26 27 26 26 25 26 27 31 34 37 42 53 58 56 53 44
99 100 100 97 100 100 100 100 100 100 100 100 99 91 78 84 77 71 62 62 66 84 81 67 69 55 46 40 34 30 32 33 36 39 37 37 34 28 28 27 28 30 30 30 38 40 50 56 69
100 99 100 100 100 100 100 100 100 100 100 100 99 83 75 88 97 83 94 91 84 73 65 59 45 44 46 46 59 53 60 57 47 43 32 18 12 12 11 11 14 14 16 16 19 25 33 44 59
100 100 98 78 82 86 80 70 51 45 54 70 72 85 77 77 87 92 89 60 58 75 81 74 59 64 66 71 67 47 31 21 16 12 10 10 9 8 9 9 9 9 9 10 11 14 17 22 40
100 100 100 100 100 100 100 100 100 100 99 100 96 93 94 84 76 93 100 100 100 93 87 85 92 88 73 50 34 24 13 10 9 8 9 9 9 9 9 9 9 9 9 9 9 8 8 9 12
100 100 100 100 100 100 100 99 100 100 100 100 100 100 100 100 98 90 94 98 96 87 73 54 39 28 24 19 16 10 10 10 9 9 8 8 8 8 8 8 9 9 9 8 8 9 10 9 7
100 100 100 100 100 97 100 100 100 100 100 97 85 88 84 91 99 96 88 78 62 46 36 23 20 16 12 12 11 12 12 11 10 9 8 8 9 9 10 11 11 12 12 13 13 13 11 11 11